Retour au catalogue

DELTA 1 DEB

ActifLEO
NORAD 7069·DEBRIS·🇺🇸 United States

Lancé Nov 6, 1973 depuis Vandenberg Space Force Base

Loading…

Prochains Passages (prochaines 24 heures)

TLE

FraisSource: Space-Track

Époque: Sep 14, 2026, 03:18 UTC

1 07069U 73086BM  26257.13779276  .00001493  00000-0  16634-2 0  9999
2 07069 102.7775 326.2809 0247690 178.8992 181.2732 13.61527501574466

Suivez DELTA 1 DEB en temps réel avec AllMySat

Download on the App Store